Moline, IL

11:15 PM CDT on April 29, 2017 (GMT -0500)
Quad-City International

Weather History for KMLI - March, 2012

Change the Weather History Date:

Saturday, March 10, 2012

  Actual Average Record
Temperature  
Mean Temperature 47 °F 36 °F  
Max Temperature 63 °F 46 °F 74 °F (1955)
Min Temperature 30 °F 27 °F -2 °F (1934)
Degree Days  
Heating Degree Days 18 29  
Month to date heating degree days 264 306  
Since 1 July heating degree days 4464 5104  
Cooling Degree Days 0 0  
Month to date cooling degree days 0 0  
Year to date cooling degree days 0 0  
Moisture  
Dew Point 24 °F    
Average Humidity 42    
Maximum Humidity 58    
Minimum Humidity 25    
Precipitation  
Precipitation 0.00 in 0.09 in 1.92 in (1990)
Month to date precipitation 0.45 0.88  
Year to date precipitation 3.10 3.97  
Snow  
Snow 0.00 in 0.20 in - ()
Month to date snowfall 4.0 1.7  
Since 1 July snowfall 16.9 28.4  
Snow Depth 0.00 in    
Sea Level Pressure  
Sea Level Pressure 30.28 in    
Wind  
Wind Speed 13 mph (SSW)    
Max Wind Speed 28 mph    
Max Gust Speed 36 mph    
Visibility 10 miles    
Events      
T = Trace of Precipitation, MM = Missing Value Source: NWS Daily Summary

Daily Weather History Graph

Daily Weather History Graph

Search for Another Location

Airport or City:

Trip Planner

Search our weather history database for the weather conditions in past years. The results will help you decide how hot, cold, wet, or windy it might be!

Date:

Astronomy

Mar. 10, 2012 Rise Set
Actual Time 6:21 AM CST 6:03 PM CST
Civil Twilight 5:53 AM CST 6:31 PM CST
Nautical Twilight 5:21 AM CST 7:03 PM CST
Astronomical Twilight 4:49 AM CST 7:35 PM CST
Moon 9:19 PM CST (3/10) 7:13 AM CST (3/10)
Length of Visible Light 12h 37m
Length of Day
11h 42m
Waning Gibbous, 92% of the Moon is Illuminated
Mar 10
Waning Gibbous
Mar 14
Last Quarter
Mar 22
New
Mar 30
First Quarter
Apr 6
Full

Hourly Weather History & Observations

Time (CST) Temp. Windchill Dew Point Humidity Pressure Visibility Wind Dir Wind Speed Gust Speed Precip Events Conditions
12:52 AM 30.9 °F 23.5 °F 16.0 °F 54% 30.43 in 10.0 mi SSE 8.1 mph - N/A   Clear
1:52 AM 32.0 °F 24.2 °F 17.1 °F 54% 30.42 in 10.0 mi SSE 9.2 mph - N/A   Clear
2:52 AM 30.9 °F 27.5 °F 18.0 °F 59% 30.39 in 10.0 mi SE 3.5 mph - N/A   Clear
3:52 AM 33.1 °F 25.5 °F 18.0 °F 54% 30.38 in 10.0 mi South 9.2 mph - N/A   Clear
4:52 AM 33.1 °F 26.9 °F 18.0 °F 54% 30.38 in 10.0 mi South 6.9 mph 16.1 mph N/A   Clear
5:52 AM 33.1 °F 27.7 °F 18.0 °F 54% 30.39 in 10.0 mi South 5.8 mph - N/A   Clear
6:52 AM 34.0 °F 25.0 °F 19.0 °F 54% 30.38 in 10.0 mi South 12.7 mph - N/A   Clear
7:52 AM 37.0 °F 27.4 °F 21.0 °F 52% 30.37 in 10.0 mi SSW 17.3 mph 24.2 mph N/A   Clear
8:52 AM 43.0 °F 35.7 °F 21.9 °F 43% 30.36 in 10.0 mi SSW 15.0 mph 25.3 mph N/A   Clear
9:52 AM 48.9 °F - 24.1 °F 38% 30.35 in 10.0 mi SSW 16.1 mph 24.2 mph N/A   Clear
10:52 AM 54.0 °F - 26.1 °F 34% 30.32 in 10.0 mi SW 17.3 mph 27.6 mph N/A   Clear
11:52 AM 57.9 °F - 27.0 °F 31% 30.29 in 10.0 mi SW 18.4 mph 26.5 mph N/A   Clear
12:52 PM 60.1 °F - 26.1 °F 27% 30.27 in 10.0 mi SW 23.0 mph 35.7 mph N/A   Clear
1:52 PM 62.6 °F - 26.6 °F 26% 30.23 in 10.0 mi SSW 20.7 mph 28.8 mph N/A   Clear
2:52 PM 62.1 °F - 27.0 °F 26% 30.22 in 10.0 mi SSW 17.3 mph 27.6 mph N/A   Clear
3:52 PM 63.0 °F - 28.0 °F 27% 30.19 in 10.0 mi SSW 17.3 mph 25.3 mph N/A   Clear
4:52 PM 61.0 °F - 28.9 °F 30% 30.18 in 10.0 mi SSW 16.1 mph 21.9 mph N/A   Clear
5:52 PM 57.9 °F - 28.9 °F 33% 30.17 in 10.0 mi SSW 10.4 mph - N/A   Clear
6:52 PM 55.0 °F - 28.9 °F 37% 30.17 in 10.0 mi SSW 9.2 mph - N/A   Clear
7:52 PM 54.0 °F - 28.0 °F 37% 30.18 in 10.0 mi SSW 9.2 mph 17.3 mph N/A   Clear
8:52 PM 53.1 °F - 28.0 °F 38% 30.18 in 10.0 mi SSW 11.5 mph 21.9 mph N/A   Clear
9:52 PM 51.1 °F - 27.0 °F 39% 30.19 in 10.0 mi South 10.4 mph - N/A   Clear
10:52 PM 48.9 °F - 26.1 °F 41% 30.17 in 10.0 mi South 11.5 mph - N/A   Clear
11:52 PM 48.0 °F - 27.0 °F 44% 30.18 in 10.0 mi SSW 10.4 mph - N/A   Clear